Wind_Speed
77 76 75 75 73 73 71 69 67 62 52 48 48 49 49 46 42 38 32 29 31 38 48 61 74 84 94 104 113 121 127 130 129 127 122 117 112 105
76 74 73 73 71 70 68 66 64 61 54 48 47 47 47 44 41 39 33 30 29 35 45 59 71 82 91 100 110 119 125 129 130 128 124 119 114 108
74 73 71 71 69 68 66 63 61 59 55 48 46 46 45 43 41 39 35 30 28 32 43 57 70 80 90 99 108 117 123 128 130 129 125 121 116 110
72 71 69 69 67 66 64 61 59 56 54 49 45 45 44 42 40 38 35 31 28 30 40 55 69 80 89 97 106 115 122 127 130 129 126 121 117 113
71 69 68 67 66 64 62 60 57 55 52 49 45 44 43 41 39 37 35 31 28 29 37 51 67 79 88 96 105 114 121 126 129 130 128 123 118 114
69 68 66 65 64 62 61 58 56 53 50 47 45 43 42 40 38 36 33 31 27 27 34 47 64 78 88 96 104 112 120 125 129 130 128 124 119 115
67 66 64 64 63 61 60 58 56 53 49 46 44 43 42 40 38 35 32 29 26 26 31 43 59 74 86 95 103 110 118 124 128 129 128 124 119 115
65 64 62 62 61 59 58 57 55 53 49 46 44 43 41 40 38 34 31 27 24 23 27 37 53 68 82 92 101 108 115 122 127 129 128 124 120 116
64 62 60 60 60 58 56 55 53 51 48 45 43 42 41 39 36 33 30 26 22 21 22 31 47 61 75 88 97 105 113 120 125 128 127 125 121 117
62 61 59 58 58 56 54 53 52 49 46 44 42 41 39 37 34 31 27 23 20 18 19 26 39 53 68 82 92 100 109 117 123 126 126 124 121 118
60 59 58 57 56 55 54 52 50 46 43 42 41 40 38 35 32 29 25 21 17 15 17 23 34 47 60 74 86 94 104 113 120 125 125 124 122 119
58 57 56 55 54 53 53 51 48 44 40 38 37 37 35 32 30 26 22 18 14 13 16 23 32 42 53 66 79 89 98 108 117 123 124 124 122 120
55 54 54 53 53 52 51 50 48 44 39 37 35 34 32 29 27 23 19 14 12 13 17 23 31 40 49 59 72 83 93 103 113 120 123 123 122 120
54 53 52 51 51 50 50 48 45 42 38 36 35 32 29 27 24 20 15 11 10 12 17 23 30 39 47 54 64 76 87 97 108 116 121 122 122 121
52 51 51 50 49 49 48 47 44 41 37 35 33 30 27 24 20 17 12 9 9 12 18 24 30 38 45 52 59 70 80 92 103 112 119 122 122 121
51 50 50 49 48 47 47 45 43 40 36 33 31 27 24 21 17 13 10 7 9 13 18 24 30 37 44 50 56 64 75 86 98 108 116 120 121 120
48 48 48 47 46 46 46 44 41 39 35 32 29 25 22 19 15 11 7 6 8 13 18 24 30 36 43 49 53 60 69 80 92 103 113 118 121 120
46 46 46 45 45 44 44 42 39 37 33 29 27 23 19 16 13 9 6 5 8 12 18 24 30 35 40 45 51 57 64 74 86 97 109 116 119 119
45 45 45 44 43 43 43 40 37 35 30 27 24 21 17 13 10 7 4 5 7 12 17 22 28 34 38 43 49 55 61 70 81 92 104 113 117 117
43 43 43 43 42 42 41 39 36 33 29 26 23 19 15 11 9 6 4 5 7 11 16 21 26 31 37 42 48 53 60 67 77 87 99 109 114 115
41 42 42 41 41 42 40 38 35 32 28 25 21 17 13 10 8 6 4 4 7 10 14 19 24 30 36 41 46 52 59 65 74 83 94 104 110 114
39 40 40 40 40 40 39 36 34 32 28 24 19 15 11 8 6 4 2 3 6 9 13 17 22 29 35 39 45 52 59 65 73 81 90 99 106 111
38 39 39 39 39 39 37 35 34 32 28 24 18 13 10 7 5 3 2 3 6 9 12 15 19 25 33 38 45 52 59 66 72 80 87 94 100 105
Wind_Direction
326 327 327 328 328 328 328 328 328 330 332 326 321 318 317 318 315 309 296 280 256 234 221 214 210 208 207 206 205 204 203 201 201 201 201 202 201 201
326 327 328 328 329 329 329 328 328 328 331 329 324 320 319 318 316 312 302 284 264 239 222 212 208 207 205 205 204 203 202 201 200 200 200 201 201 200
326 328 328 329 330 330 330 329 328 327 329 330 325 322 320 318 316 314 307 290 271 246 224 212 207 205 205 204 203 202 201 201 200 200 200 200 200 200
326 328 329 330 331 330 330 329 328 327 328 330 327 324 322 318 316 314 309 297 277 252 227 213 206 204 203 203 202 201 201 200 199 199 199 199 200 199
327 328 329 330 331 331 331 330 329 328 327 328 328 326 324 320 316 314 310 300 283 258 232 216 208 204 203 202 202 201 200 199 199 198 198 199 199 199
327 329 330 331 331 331 331 331 329 329 328 328 328 327 325 322 319 316 312 303 287 265 237 219 209 205 203 202 201 201 200 199 198 198 198 198 199 199
327 329 330 330 331 332 333 332 331 330 329 328 329 329 327 325 322 318 314 305 290 268 241 222 211 206 204 203 202 201 200 199 198 197 197 198 198 199
327 329 330 331 332 333 333 333 331 330 329 329 329 328 328 326 324 320 315 307 292 270 244 223 213 207 205 203 202 201 200 199 198 197 197 197 198 198
328 329 331 331 332 333 334 334 332 330 329 328 328 328 327 325 323 321 316 308 294 271 245 222 212 206 205 203 203 202 200 199 198 197 196 197 197 198
328 330 331 332 332 333 334 334 334 331 329 327 326 327 326 325 324 321 315 307 293 270 241 218 209 205 204 203 203 202 201 199 198 196 196 196 197 198
327 330 331 332 333 333 335 336 335 332 329 327 327 327 327 326 325 322 315 305 290 264 233 212 204 201 201 201 202 202 201 200 198 196 196 196 197 198
327 329 331 332 333 334 336 336 336 333 330 328 327 327 327 326 325 322 315 302 283 253 224 208 200 196 196 198 200 201 201 200 198 197 196 196 197 198
327 330 331 332 334 334 336 336 336 335 332 331 329 329 328 326 325 322 314 299 271 240 216 203 195 191 191 194 198 200 200 200 198 197 196 196 197 197
327 330 332 333 334 335 336 337 336 336 334 333 332 331 330 328 325 322 313 292 259 228 209 199 193 188 186 189 194 198 199 200 199 197 196 196 197 197
328 330 332 333 334 335 336 337 337 337 336 335 334 332 331 330 327 323 312 283 244 217 204 197 192 187 185 186 191 195 198 199 199 198 197 196 197 197
328 331 332 333 335 336 337 338 338 338 338 337 336 335 333 333 330 323 311 276 233 211 202 197 192 188 186 186 188 193 196 198 199 198 197 196 197 197
328 330 332 333 335 336 338 338 338 338 338 338 338 337 336 335 332 323 305 265 225 208 201 197 193 190 188 186 187 190 194 197 198 198 197 197 196 197
328 330 332 333 335 337 338 338 338 338 338 338 338 338 337 335 332 324 296 251 221 208 202 198 194 192 190 188 187 189 192 195 197 198 198 197 196 197
328 330 332 333 335 337 339 339 339 339 338 338 337 337 337 336 334 326 294 249 221 207 200 197 195 192 190 189 188 188 190 193 196 197 197 197 196 197
328 330 332 334 336 338 339 340 339 339 338 337 336 334 334 333 330 323 297 244 218 206 199 197 195 193 191 191 190 188 189 191 194 196 196 196 196 197
328 330 332 334 336 338 339 340 340 339 338 336 333 331 329 328 324 320 296 235 205 198 198 198 198 197 194 192 190 188 188 189 191 193 195 196 197 197
328 330 333 335 337 339 340 341 341 340 338 336 332 328 325 321 318 316 300 215 198 190 191 196 199 198 196 193 190 188 187 187 189 191 193 196 196 197
328 331 333 335 337 339 341 342 342 341 339 336 330 325 319 313 300 285 258 206 195 191 189 190 194 196 195 193 191 188 186 185 186 189 191 193 195 196
Height
5493 5477 5460 5442 5425 5407 5390 5373 5359 5350 5346 5332 5318 5305 5294 5286 5279 5273 5268 5265 5263 5264 5270 5279 5293 5310 5329 5351 5376 5402 5429 5459 5489 5518 5547 5575 5601 5625
5480 5465 5448 5431 5414 5397 5381 5366 5350 5337 5331 5324 5311 5299 5287 5278 5271 5264 5259 5255 5253 5254 5258 5266 5279 5295 5314 5335 5358 5384 5412 5442 5472 5502 5531 5559 5585 5609
5468 5453 5437 5420 5404 5388 5372 5358 5344 5330 5320 5314 5303 5292 5280 5271 5263 5256 5250 5246 5244 5244 5247 5254 5266 5281 5299 5320 5343 5368 5396 5426 5456 5486 5515 5543 5570 5595
5457 5441 5426 5409 5394 5378 5364 5350 5336 5323 5312 5304 5296 5285 5274 5264 5256 5249 5242 5237 5235 5234 5236 5243 5254 5268 5286 5307 5329 5354 5381 5410 5440 5470 5501 5531 5557 5580
5446 5431 5415 5400 5385 5370 5356 5342 5329 5316 5305 5295 5288 5278 5268 5257 5249 5242 5235 5229 5226 5225 5227 5233 5244 5257 5274 5294 5316 5341 5367 5397 5427 5457 5486 5516 5543 5568
5435 5420 5405 5390 5376 5362 5348 5334 5322 5310 5298 5288 5280 5271 5261 5251 5242 5235 5229 5222 5219 5217 5219 5224 5234 5247 5264 5284 5306 5330 5356 5383 5413 5444 5474 5504 5531 5556
5425 5410 5395 5381 5367 5352 5338 5325 5313 5301 5291 5281 5272 5263 5254 5245 5236 5228 5222 5216 5212 5210 5211 5216 5224 5238 5255 5275 5296 5320 5345 5373 5402 5432 5462 5491 5519 5544
5416 5401 5387 5372 5358 5345 5331 5317 5304 5293 5283 5274 5265 5256 5248 5239 5230 5223 5216 5211 5207 5205 5205 5210 5217 5231 5247 5267 5288 5311 5336 5363 5391 5421 5451 5480 5508 5534
5406 5393 5379 5365 5351 5338 5325 5312 5299 5287 5277 5268 5259 5251 5242 5234 5226 5218 5212 5206 5203 5200 5201 5205 5212 5225 5240 5259 5280 5303 5327 5354 5381 5411 5440 5469 5496 5522
5397 5384 5371 5358 5344 5331 5319 5307 5294 5282 5272 5263 5255 5246 5238 5229 5221 5215 5209 5204 5200 5198 5198 5201 5208 5220 5234 5253 5274 5297 5320 5346 5373 5401 5430 5459 5485 5511
5387 5375 5362 5350 5338 5325 5313 5301 5290 5278 5267 5258 5249 5241 5233 5225 5217 5211 5206 5201 5199 5197 5198 5200 5206 5216 5230 5249 5268 5290 5313 5338 5364 5391 5420 5447 5474 5498
5379 5367 5354 5342 5330 5317 5306 5295 5284 5274 5264 5255 5246 5237 5229 5222 5215 5208 5203 5199 5197 5197 5198 5201 5205 5214 5227 5243 5262 5282 5305 5329 5354 5381 5408 5435 5461 5486
5371 5359 5347 5335 5323 5311 5300 5288 5278 5268 5259 5251 5242 5234 5226 5219 5213 5207 5202 5199 5197 5197 5199 5202 5207 5214 5225 5240 5257 5277 5298 5321 5345 5371 5398 5425 5451 5477
5364 5352 5341 5329 5317 5306 5295 5284 5273 5263 5254 5246 5238 5231 5224 5217 5211 5206 5202 5199 5198 5199 5201 5204 5209 5216 5226 5238 5254 5273 5293 5314 5338 5363 5390 5416 5441 5467
5356 5345 5334 5323 5312 5301 5290 5279 5269 5259 5251 5243 5235 5227 5221 5215 5209 5205 5201 5200 5199 5200 5203 5206 5212 5219 5227 5238 5252 5268 5287 5307 5330 5354 5380 5406 5432 5458
5348 5337 5327 5316 5306 5295 5285 5274 5264 5255 5247 5239 5232 5225 5219 5213 5209 5205 5202 5201 5201 5202 5205 5209 5214 5221 5229 5238 5250 5266 5283 5302 5324 5347 5372 5398 5423 5450
5341 5331 5321 5311 5300 5290 5279 5269 5260 5251 5243 5236 5229 5223 5218 5213 5208 5205 5203 5202 5202 5204 5207 5211 5216 5222 5230 5239 5250 5264 5281 5299 5320 5341 5365 5390 5417 5443
5334 5325 5315 5305 5296 5286 5276 5266 5256 5248 5240 5234 5227 5222 5217 5212 5208 5206 5204 5203 5204 5205 5208 5212 5217 5224 5232 5241 5251 5264 5279 5296 5315 5336 5359 5385 5411 5437
5328 5319 5309 5300 5290 5281 5271 5262 5253 5245 5237 5231 5225 5220 5216 5212 5209 5206 5205 5204 5205 5206 5209 5213 5218 5225 5233 5242 5251 5262 5277 5292 5310 5331 5355 5382 5409 5435
5322 5313 5304 5294 5285 5276 5267 5257 5249 5241 5234 5228 5223 5219 5215 5211 5209 5206 5205 5205 5205 5207 5209 5213 5218 5225 5232 5240 5249 5260 5273 5288 5307 5329 5352 5378 5403 5425
5315 5307 5298 5289 5280 5271 5262 5253 5245 5238 5231 5225 5221 5217 5213 5210 5208 5206 5205 5205 5205 5207 5209 5213 5217 5223 5229 5237 5247 5258 5271 5285 5303 5324 5347 5369 5391 5413
5309 5301 5293 5284 5275 5267 5258 5249 5242 5234 5228 5222 5218 5214 5212 5209 5208 5206 5205 5205 5205 5207 5209 5212 5216 5221 5228 5237 5246 5256 5268 5282 5299 5317 5338 5362 5385 5411
5304 5296 5288 5279 5271 5262 5254 5246 5239 5231 5225 5219 5215 5212 5210 5208 5207 5206 5205 5205 5206 5207 5209 5211 5215 5220 5226 5234 5242 5252 5264 5279 5295 5314 5337 5360 5386 5412